Overview Statistics Trail Chart Weather Telemetry Raw packets
 

This is the latest recevied weather packets stored in our database for station/object K7DC. If no packets are shown the sender has not sent any weather packets the latest 10 day(s).

<< 57 58 59 60 61 62 63 >>
Time Temp. Humidity Pressure Rain* Wind** Luminosity Snow
1788249274 21.11° C 85% 1017.2 hPa 0 mm - 0 W/m² -
1788248973 21.11° C 84% 1017.1 hPa 0 mm - 0 W/m² -
1788248673 21.11° C 84% 1017.1 hPa 0 mm - 0 W/m² -
1788248369 21.67° C 83% 1017.2 hPa 0 mm - 0 W/m² -
1788248066 21.67° C 82% 1017.1 hPa 0 mm - 0 W/m² -
1788247765 21.67° C 81% 1017.2 hPa 0 mm - 0 W/m² -
1788247460 22.22° C 79% 1017 hPa 0 mm - 0 W/m² -
1788247156 22.22° C 77% 1017.3 hPa 0 mm - 0 W/m² -
1788246854 22.22° C 76% 1017.1 hPa 0 mm - 0 W/m² -
1788246554 22.22° C 75% 1017.1 hPa 0 mm - 0 W/m² -
1788246249 22.22° C 75% 1017.1 hPa 0 mm - 0 W/m² -
1788245948 22.22° C 75% 1017.2 hPa 0 mm - 0 W/m² -
1788245643 22.22° C 75% 1017.3 hPa 0 mm - 0 W/m² -
1788245339 22.22° C 75% 1017.2 hPa 0 mm - 0 W/m² -
1788245035 22.22° C 77% 1017.1 hPa 0 mm - 0 W/m² -
1788244732 21.67° C 79% 1017.2 hPa 0 mm - 0 W/m² -
1788244428 21.11° C 82% 1017.2 hPa 0 mm - 0 W/m² -
1788244124 21.11° C 81% 1017.1 hPa 0 mm - 0 W/m² -
1788243820 21.11° C 83% 1017.3 hPa 0 mm - 0 W/m² -
1788243515 21.11° C 85% 1017.2 hPa 0 mm - 0 W/m² -
1788243211 21.11° C 84% 1017.3 hPa 0 mm - 0 W/m² -
1788242906 21.67° C 81% 1017.3 hPa 0 mm - 0 W/m² -
1788242602 21.67° C 83% 1017.3 hPa 0 mm - 0 W/m² -
1788242301 21.67° C 83% 1017.3 hPa 0 mm - 0 W/m² -
1788241998 22.22° C 81% 1017.6 hPa 0 mm - 0 W/m² -

* Rain latest hour (hover to see other rain measurements)
** Current wind speed in m/s (hover to see current wind gust speed)